This is the latest recevied weather packets stored in our database for station/object KB9MLJ. If no packets are shown the sender has not sent any weather packets the latest 10 day(s).
| Time | Temp. | Humidity | Pressure | Rain* | Wind** | Luminosity | Snow |
|---|---|---|---|---|---|---|---|
| 1777581338 | 15° C | 47% | 1014.4 hPa | 0 mm | - | 45 W/m² | - |
| 1777581033 | 15° C | 46% | 1014.4 hPa | 0 mm | - | 55 W/m² | - |
| 1777580733 | 15° C | 44% | 1014 hPa | 0 mm | - | 76 W/m² | - |
| 1777580429 | 15.56° C | 45% | 1014.4 hPa | 0 mm | - | 124 W/m² | - |
| 1777580125 | 15.56° C | 44% | 1014 hPa | 0 mm | - | 162 W/m² | - |
| 1777579822 | 15.56° C | 43% | 1014.4 hPa | 0 mm | - | 142 W/m² | - |
| 1777579521 | 15.56° C | 42% | 1014.4 hPa | 0 mm | - | 156 W/m² | - |
| 1777579221 | 15.56° C | 42% | 1014.4 hPa | 0 mm | - | 170 W/m² | - |
| 1777578916 | 15.56° C | 42% | 1014.4 hPa | 0 mm | - | 206 W/m² | - |
| 1777578611 | 15.56° C | 42% | 1014.4 hPa | 0 mm | - | 226 W/m² | - |
| 1777578306 | 16.11° C | 43% | 1014.4 hPa | 0 mm | - | 257 W/m² | - |
| 1777578003 | 15.56° C | 41% | 1014.4 hPa | 0 mm | - | 247 W/m² | - |
| 1777577703 | 15.56° C | 42% | 1014.4 hPa | 0 mm | - | 321 W/m² | - |
| 1777577400 | 15.56° C | 42% | 1014.4 hPa | 0 mm | - | 261 W/m² | - |
| 1777577096 | 15.56° C | 42% | 1014.4 hPa | 0 mm | - | 278 W/m² | - |
| 1777576793 | 16.11° C | 42% | 1014.4 hPa | 0 mm | - | 287 W/m² | - |
| 1777576492 | 16.11° C | 43% | 1014.7 hPa | 0 mm | - | 312 W/m² | - |
| 1777576189 | 16.11° C | 43% | 1014.4 hPa | 0 mm | - | 322 W/m² | - |
| 1777575884 | 16.11° C | 45% | 1015 hPa | 0 mm | - | 731 W/m² | - |
| 1777575581 | 15.56° C | 43% | 1015 hPa | 0 mm | - | 787 W/m² | - |
| 1777575277 | 15.56° C | 45% | 1015 hPa | 0 mm | - | 420 W/m² | - |
| 1777574973 | 15° C | 44% | 1015 hPa | 0 mm | - | 842 W/m² | - |
| 1777574669 | 15.56° C | 45% | 1015 hPa | 0 mm | - | 317 W/m² | - |
| 1777574366 | 15° C | 46% | 1015.4 hPa | 0 mm | - | 656 W/m² | - |
| 1777574061 | 15° C | 44% | 1015.4 hPa | 0 mm | - | 221 W/m² | - |
* Rain latest hour (hover to see other rain measurements)
** Current wind speed in m/s (hover to see current wind gust speed)